Track YAOGAN 20A now! 10-day predictions YAOGAN 20A is classified as:
1 40109U 14047A 24286.45702154 .00000126 00000-0 26002-3 0 9992 2 40109 63.3833 158.0619 0336421 11.6231 349.2319 13.45338055500008